SCP
0 0 0 1 0 0 0 0 0 0 0 0 0 0 0 0 0 0 0 0 0 0 0 0 0 0 0 0 0 0 0 0 0 0 0 0 0 0 0 0 0 0 0 0 0 0 0 0 0
0 0 1 0 0 0 0 0 0 0 0 0 0 0 0 0 0 0 0 0 0 0 0 0 0 0 0 0 0 0 0 0 0 0 0 0 0 0 0 0 0 0 0 0 0 0 0 0 0
0 0 0 0 0 0 0 0 0 0 0 0 0 0 0 0 0 0 0 0 0 0 0 0 0 0 0 0 0 0 0 0 0 0 0 0 0 0 0 0 0 0 0 0 0 0 0 0 0
1 1 0 0 0 0 0 0 0 0 0 0 0 0 0 0 0 0 0 0 0 0 0 0 0 0 0 0 0 0 0 0 0 0 0 0 0 0 0 0 0 0 0 0 0 0 0 0 0
1 1 0 0 0 0 0 0 0 0 0 0 0 0 0 0 0 0 0 0 0 0 0 0 0 0 0 0 0 0 0 0 0 0 0 0 0 0 0 0 0 0 0 0 0 0 0 0 0
1 1 0 0 0 0 0 0 0 0 0 0 0 0 0 0 0 0 0 0 0 0 0 0 0 0 0 0 0 0 0 0 0 0 0 0 0 0 0 0 0 0 0 0 0 0 0 0 0
1 0 0 0 0 0 0 0 0 0 0 0 0 0 0 0 0 0 0 0 0 0 0 0 0 0 0 0 0 0 0 0 0 0 0 0 0 0 0 0 0 0 0 0 0 0 0 0 0
1 0 0 0 0 0 0 0 0 0 0 0 0 0 0 0 0 0 0 0 0 0 0 0 0 0 0 0 0 0 0 0 0 0 0 0 0 0 0 0 0 0 0 0 0 0 0 0 0
0 0 0 0 0 0 0 0 0 0 0 0 0 0 0 0 0 0 0 0 0 0 0 0 0 0 0 0 0 0 0 0 0 0 0 0 0 0 0 0 0 0 0 0 0 0 0 0 0
0 0 0 0 0 0 0 0 0 0 0 0 0 0 0 0 0 0 0 0 0 0 0 0 0 0 0 0 0 0 0 0 0 0 0 0 0 0 0 0 0 0 0 0 0 0 0 0 0
0 0 0 0 0 0 0 0 0 0 0 0 0 0 0 0 0 0 0 0 0 0 0 0 0 0 0 0 0 0 0 0 0 0 0 0 0 0 0 0 0 0 0 0 0 0 0 0 0
0 0 0 0 0 0 0 0 0 0 0 0 0 0 0 0 0 0 0 0 0 0 0 0 0 0 0 0 0 0 0 0 0 0 0 0 0 0 0 0 0 0 0 0 0 0 0 0 0
0 0 0 0 0 0 0 0 0 0 0 0 0 0 0 0 0 0 0 0 0 0 0 0 0 0 0 0 0 0 0 0 0 0 0 0 0 0 0 0 0 0 0 0 0 0 0 0 0
0 0 0 0 0 0 0 0 0 0 0 0 0 0 0 0 0 0 0 0 0 0 0 0 0 0 0 0 0 0 0 0 0 0 0 0 0 0 0 0 0 0 0 0 0 0 0 0 0
0 0 0 0 0 0 0 0 0 0 0 0 0 0 0 0 0 0 0 0 0 0 0 0 0 0 0 0 0 0 0 0 0 0 0 0 0 0 0 0 0 0 0 0 0 0 0 0 0
0 0 0 0 0 0 0 0 0 0 0 0 0 0 0 0 0 0 0 0 0 0 0 0 0 0 0 0 0 0 0 0 0 0 0 0 0 0 0 0 0 0 0 0 0 0 0 0 0
0 0 0 0 0 0 0 0 0 0 0 0 0 0 0 0 0 0 0 0 0 0 0 0 0 0 0 0 0 0 0 0 0 0 0 0 0 0 0 0 0 0 0 0 0 0 0 0 0
0 0 0 0 0 0 0 0 0 0 0 0 0 0 0 0 0 0 0 0 0 0 0 0 0 0 0 0 0 0 0 0 0 0 0 0 0 0 0 0 0 0 0 0 0 0 0 0 0
0 0 0 0 0 0 0 0 0 0 0 0 0 0 0 0 0 0 0 0 0 1 1 1 0 0 0 0 0 0 0 0 0 0 0 0 0 0 0 0 0 0 0 0 0 0 0 0 0
0 0 0 0 0 0 0 0 0 0 0 0 0 0 0 0 0 0 0 0 0 1 1 1 1 1 0 0 0 0 0 0 0 0 0 0 0 0 0 0 0 0 0 0 0 0 0 0 0
0 0 0 0 0 0 0 0 0 0 0 0 0 0 0 0 0 1 0 0 1 1 1 1 1 1 1 0 0 0 0 0 0 0 0 0 0 0 0 0 0 0 0 0 0 0 0 0 0
0 0 0 0 0 0 0 0 0 0 0 0 0 0 0 0 0 1 1 1 1 1 1 1 1 1 1 0 0 0 0 0 0 0 0 0 0 0 0 0 0 0 0 0 0 0 0 0 0
0 0 0 0 0 0 0 0 0 0 0 0 0 0 0 0 1 1 1 1 1 1 1 1 1 1 1 1 0 0 0 0 0 0 0 0 0 0 0 0 0 0 0 0 0 0 1 1 0
0 0 0 0 0 0 0 0 0 0 0 0 0 0 0 0 1 1 1 1 1 1 1 1 1 1 1 1 1 0 0 0 0 0 0 0 0 0 1 1 1 1 1 1 1 1 1 1 1
0 0 0 0 0 0 0 0 0 0 0 0 0 0 0 0 1 1 1 1 1 1 1 1 1 1 1 1 1 1 1 0 0 0 0 0 0 0 1 1 1 1 1 1 1 1 1 1 1
0 0 0 0 0 0 0 0 0 0 0 0 0 0 0 0 0 1 1 1 1 1 1 1 1 1 1 1 1 1 1 1 1 1 1 0 0 0 1 1 1 1 1 1 1 1 1 1 1
0 0 0 0 0 0 0 0 0 0 0 0 0 0 0 0 0 1 1 1 1 1 1 1 1 2 1 1 1 1 1 1 1 1 1 1 0 1 1 1 1 1 1 1 1 1 1 1 1
0 0 0 0 0 0 0 0 0 0 0 0 0 0 0 0 0 0 1 1 1 1 1 1 1 2 2 1 1 1 1 1 1 1 1 1 1 1 1 1 1 1 1 1 1 1 1 0 0
0 0 0 0 0 0 0 0 0 0 0 0 0 0 0 0 0 1 1 1 1 1 1 1 1 2 2 1 1 1 1 1 1 1 1 1 1 1 1 1 1 1 1 1 1 1 1 0 0
0 0 0 0 0 0 0 0 0 0 0 0 0 0 0 0 1 1 1 1 1 1 1 1 1 1 1 1 1 1 1 1 1 1 1 1 1 1 1 1 1 1 1 1 1 1 1 0 0
Wind_Speed
9 11 9 6 4 2 11 12 11 11 12 13 13 14 16 15 11 10 7 8 10 11 10 10 11 11 11 12 12 12 12 12 12 13 13 13 13 13 13 13 13 13 13 14 13 14 13 13 13
9 11 8 5 1 6 11 11 12 11 10 11 14 15 16 16 14 11 8 8 11 12 10 10 11 11 12 12 12 12 13 13 12 13 13 13 13 13 13 13 13 13 13 13 13 14 13 12 11
12 13 6 2 7 10 11 10 10 11 10 11 13 14 13 12 13 10 8 9 11 12 11 11 12 12 12 12 12 12 12 12 13 13 12 12 12 12 13 13 13 13 13 13 13 13 12 11 11
8 6 3 3 11 12 12 10 10 10 10 11 12 13 14 12 11 10 10 10 11 13 12 11 12 12 12 12 12 12 12 12 12 12 12 12 12 12 12 12 12 12 12 12 12 12 11 11 10
8 4 2 8 11 12 10 11 11 10 11 13 14 15 14 13 12 11 10 10 11 12 11 11 12 12 12 12 12 12 12 12 12 12 11 11 11 11 11 12 11 11 11 12 12 11 11 10 9
5 3 3 8 11 11 10 10 11 11 11 13 15 16 12 11 11 10 10 10 11 12 11 11 12 12 11 11 11 11 11 11 11 11 11 11 11 11 11 11 11 11 11 11 11 10 10 8 7
4 0 5 9 11 11 10 9 10 10 10 11 13 14 12 11 9 9 9 9 9 10 11 10 10 10 10 11 11 10 10 10 10 10 10 10 10 10 10 11 11 10 10 10 10 9 8 7 6
3 1 6 10 11 11 10 10 10 11 11 9 10 11 11 11 11 10 9 9 9 9 8 9 9 9 8 9 10 10 10 9 8 8 8 8 9 8 10 10 10 10 9 9 8 8 7 6 5
2 2 7 10 10 11 11 11 11 11 11 11 12 15 15 13 12 10 9 9 8 8 7 7 7 7 7 8 9 9 9 7 7 6 6 6 5 6 6 10 10 9 8 7 7 6 6 6 6
2 5 9 10 10 11 11 11 10 10 11 12 15 17 16 13 11 10 9 9 8 7 7 7 6 6 6 6 6 4 5 5 3 3 3 3 3 4 7 9 9 8 7 6 5 6 6 5 4
6 7 9 10 10 10 11 10 10 10 11 13 14 16 14 13 11 10 9 9 8 6 7 8 7 5 6 5 4 2 3 3 3 3 2 2 3 3 4 3 5 4 5 3 4 4 3 3 1
7 7 9 9 9 10 11 10 11 11 12 14 14 14 13 12 11 10 9 8 8 7 8 8 7 6 5 4 3 3 3 2 2 3 2 3 2 3 3 2 2 2 2 1 2 1 2 1 1
6 7 9 9 8 10 11 11 11 12 13 15 14 13 12 11 10 10 9 9 9 8 8 8 7 6 5 4 2 3 3 2 3 2 2 3 3 3 3 2 1 1 1 1 1 1 2 1 0
4 5 7 8 8 8 9 11 10 11 13 14 13 12 11 11 11 10 9 8 8 8 8 7 7 6 4 3 2 2 3 3 3 3 4 4 3 2 2 2 1 1 2 2 1 1 1 1 1
3 4 3 5 6 8 6 8 10 11 12 13 13 11 11 11 10 10 9 8 8 8 8 7 6 6 4 3 1 2 2 3 3 3 4 3 3 2 2 2 1 1 1 1 0 1 1 1 1
2 3 3 4 5 7 5 6 9 11 12 12 12 11 10 10 10 10 10 9 8 8 7 5 6 7 4 2 1 1 2 3 3 2 2 3 3 2 2 1 1 0 0 1 1 1 1 1 1
5 4 4 5 5 7 7 8 10 11 11 11 11 11 11 11 11 10 10 11 9 8 7 5 5 6 4 3 1 2 2 2 2 2 2 2 2 2 1 1 1 0 0 1 1 2 1 1 1
5 4 5 6 7 6 7 10 11 10 11 11 11 11 11 11 11 11 10 11 10 9 7 6 5 4 4 3 2 1 1 1 1 2 2 2 1 1 1 0 1 1 1 1 1 1 1 1 1
5 3 3 4 6 5 5 10 11 11 10 12 12 12 11 11 12 12 11 11 10 9 8 6 5 4 3 2 2 2 2 1 1 2 3 2 1 1 0 1 1 0 1 1 1 1 2 1 0
5 4 5 3 5 4 3 5 9 10 10 11 12 12 12 12 12 12 11 10 10 9 8 7 6 5 4 3 1 1 1 1 2 2 3 2 1 1 1 0 1 0 0 0 0 1 1 2 1
7 6 4 3 3 5 5 5 6 8 8 9 11 11 13 13 13 12 11 10 10 10 9 7 6 5 4 3 2 1 1 1 1 2 2 2 2 1 0 0 1 1 0 0 1 1 2 2 2
6 5 4 5 6 3 4 4 7 9 10 10 10 10 11 13 13 13 13 11 11 10 10 7 6 5 4 4 3 3 3 2 2 1 2 2 2 1 1 1 1 1 1 0 1 0 2 2 2
6 4 3 5 6 6 5 4 5 9 9 10 11 10 10 12 13 13 13 12 11 11 10 8 7 6 5 4 3 3 2 2 2 2 2 2 2 2 1 1 1 1 1 1 1 1 2 2 2
5 4 5 6 7 8 6 5 4 5 8 9 11 11 11 12 13 13 12 12 10 11 10 10 8 6 6 5 4 3 3 2 1 1 2 2 2 2 2 2 1 1 1 1 1 1 2 2 2
5 4 4 5 6 6 5 4 3 5 7 9 11 12 12 12 12 12 13 12 11 10 10 9 9 7 7 6 5 4 3 3 2 2 2 2 1 2 2 2 1 1 1 1 1 2 2 1 1
8 8 6 6 6 5 5 4 3 5 4 6 9 10 11 11 12 12 12 12 11 11 9 9 9 8 7 6 5 4 4 3 3 4 2 2 1 1 2 2 2 2 2 2 1 1 1 1 2
9 9 9 8 9 7 4 3 4 6 7 7 9 9 9 9 11 12 12 12 11 11 10 10 9 8 7 7 6 5 4 4 3 2 2 2 1 1 2 2 1 1 1 1 1 1 1 1 1
11 9 7 6 6 7 6 4 4 5 6 7 8 9 8 8 7 10 11 10 10 10 9 9 9 9 7 6 6 5 5 4 3 2 2 2 1 1 0 1 1 1 1 1 1 1 1 1 1
10 11 8 6 5 6 6 3 3 4 6 7 9 10 9 8 7 7 8 9 9 9 9 9 9 8 7 6 5 4 5 5 4 3 3 2 2 2 1 1 1 1 1 1 1 1 1 1 1
10 10 8 6 5 5 6 4 3 3 5 5 6 8 8 7 7 7 7 7 7 8 8 8 8 8 7 6 6 5 4 4 4 4 3 3 3 2 2 1 1 2 1 1 1 2 1 1 2
Wind_Direction
210 223 222 240 245 81 63 61 61 64 62 57 56 62 60 52 60 84 98 91 88 88 87 80 73 74 78 79 82 81 80 82 84 85 84 87 88 90 92 94 100 105 107 108 111 115 118 122 125
231 229 230 239 212 70 71 71 70 70 74 73 68 69 70 69 77 94 97 97 95 92 85 78 77 76 82 83 83 82 82 83 85 86 86 87 88 90 92 94 99 103 106 108 110 112 115 118 124
249 249 256 235 64 72 77 77 80 81 80 78 75 65 63 74 81 92 104 103 95 91 88 85 83 81 83 83 84 83 84 84 84 86 89 91 92 92 94 95 97 99 103 106 107 112 116 118 123
252 243 230 74 68 74 82 88 88 86 83 78 82 75 69 74 91 104 114 106 99 95 93 94 90 86 85 87 87 86 86 87 87 87 91 91 94 97 98 99 100 100 103 106 108 111 118 117 119
238 257 122 79 74 78 83 89 91 84 79 81 85 89 84 85 101 111 110 104 97 101 102 102 99 93 90 89 88 88 87 88 90 90 92 93 95 97 99 100 101 102 105 109 111 112 116 121 126
260 241 84 84 84 84 83 90 91 90 94 99 97 98 95 104 105 105 100 98 98 103 106 108 108 103 97 94 93 92 90 91 93 93 95 96 97 98 99 102 103 105 109 111 114 117 119 124 129
258 341 85 88 91 86 84 84 88 94 90 95 103 102 107 112 112 106 104 99 94 97 109 119 123 117 109 105 103 99 95 94 96 99 100 102 105 106 105 106 104 105 111 112 116 125 131 134 142
250 1 71 85 89 89 88 83 82 86 81 85 104 107 118 124 124 113 106 99 96 93 99 108 120 129 128 120 113 110 106 103 104 107 109 112 116 116 117 117 114 113 113 117 122 134 142 152 165
273 70 67 81 92 102 103 94 89 91 92 81 80 102 119 127 122 117 110 102 96 96 93 97 106 121 120 115 121 126 121 113 116 117 121 128 129 127 124 113 122 125 126 129 136 152 162 174 187
100 76 75 82 92 103 104 106 108 106 101 98 98 108 121 127 122 115 112 108 102 99 101 96 87 93 100 97 114 127 117 119 120 101 123 134 117 111 108 117 130 136 141 148 160 173 182 201 194
85 81 84 88 92 97 102 106 109 107 106 111 117 124 129 128 123 120 114 107 106 104 93 96 86 69 72 85 99 93 100 111 107 102 99 104 100 108 114 130 139 153 165 178 167 188 197 192 176
98 92 88 89 95 95 96 94 92 84 98 112 118 126 129 131 128 125 120 116 115 103 94 94 95 78 61 59 72 92 93 99 95 95 73 82 74 75 89 91 127 157 164 165 161 179 145 157 156
104 106 104 100 99 100 101 95 94 96 105 115 120 125 131 132 127 125 126 123 119 113 104 96 90 82 71 56 37 79 79 81 93 87 62 66 73 67 77 67 37 62 97 105 44 76 100 83 45
107 105 112 116 115 112 108 109 107 109 118 121 127 133 139 131 131 131 129 126 126 125 115 109 106 98 88 80 54 56 69 69 71 70 62 58 67 63 75 85 48 35 53 62 42 72 88 92 102
135 112 110 133 133 122 116 109 113 124 127 131 137 139 137 137 139 138 132 131 130 124 118 120 118 110 99 85 57 83 83 86 79 78 70 61 65 61 61 67 62 42 61 105 94 62 100 141 124
211 170 169 169 164 145 158 133 128 139 138 138 144 143 144 143 146 142 137 137 133 127 125 130 127 121 118 107 55 62 71 85 91 92 88 77 73 59 62 70 65 334 8 61 104 81 42 33 39
222 210 190 183 184 165 166 139 142 151 146 144 148 150 154 151 154 147 148 146 142 133 130 133 122 130 132 131 134 102 91 92 102 101 91 86 85 66 42 74 60 294 14 29 32 61 32 359 9
209 202 204 197 167 179 152 132 152 159 156 154 159 158 161 160 160 155 154 146 142 138 137 140 136 140 145 148 158 150 137 136 124 113 110 107 94 89 334 173 101 329 37 27 39 19 320 286 301
222 213 230 195 158 169 150 145 164 165 167 161 164 165 166 164 161 157 156 151 149 146 147 150 156 151 152 166 180 169 162 167 144 142 129 140 143 154 216 341 89 305 73 48 27 355 315 285 281
254 235 236 211 164 147 151 159 167 170 175 172 170 171 167 165 162 157 158 158 155 151 150 154 163 161 171 170 188 184 172 184 167 130 135 162 158 206 197 188 318 12 77 248 275 301 302 302 308
247 254 253 253 220 163 174 184 172 174 167 177 172 172 169 167 162 159 165 165 161 159 158 161 161 161 178 165 188 203 170 234 144 144 154 181 186 193 334 334 305 319 248 199 239 292 294 298 306
247 256 279 274 265 222 212 202 182 174 177 178 174 174 169 163 163 165 168 169 168 163 160 155 156 163 172 176 197 202 190 192 179 182 151 173 189 192 188 233 267 298 304 269 266 66 292 292 294
256 258 274 276 276 270 228 236 195 174 178 178 170 167 168 168 166 168 170 167 168 165 162 159 157 164 167 185 192 205 210 200 183 167 157 186 189 200 203 196 188 263 291 298 310 321 298 296 299
262 278 270 256 257 252 235 237 201 184 176 173 165 168 172 167 166 165 164 161 168 168 166 163 159 165 169 181 190 197 218 216 196 187 180 200 196 198 197 196 188 215 257 277 282 285 282 285 303
232 251 263 260 239 241 223 239 159 164 171 171 166 168 169 164 161 163 164 165 169 170 167 162 160 168 174 180 190 192 206 209 205 222 216 222 206 183 188 195 174 202 249 263 267 278 294 300 302
234 226 233 250 261 248 219 217 156 146 165 156 154 158 159 161 162 166 167 167 170 171 167 164 161 170 177 182 190 190 196 206 215 215 233 231 236 184 168 181 175 202 241 264 250 265 286 311 295
244 244 250 254 264 272 255 179 174 162 173 165 160 154 153 159 164 164 168 169 170 172 170 171 163 168 176 183 185 186 193 209 228 211 220 236 250 224 167 177 184 210 234 261 277 292 313 326 307
251 259 266 257 267 266 273 245 190 163 173 160 158 152 147 149 160 162 165 164 168 170 169 168 164 169 175 183 188 186 190 200 221 222 211 216 229 284 211 182 189 208 223 239 243 285 290 291 311
241 244 251 269 270 264 264 274 137 180 168 169 161 153 150 156 166 157 153 159 163 166 167 163 165 165 171 181 184 189 181 191 201 204 203 209 219 233 216 217 220 224 218 216 232 245 282 292 296
249 253 246 252 261 270 277 272 128 156 141 149 143 137 146 153 151 145 145 150 158 164 167 163 167 169 174 179 179 189 186 185 194 196 200 202 210 215 219 221 225 236 223 215 228 256 275 271 280